When you browse on this site, cookies collect data to enhance your experience and personalize the content and advertising you see.
Visit our Privacy Policy to learn more. By continuing to use the site, you agree to this use of cookies and data.
  • în România
  • Lista ţărilor
  • Pe 7 zile
  • Temperatura apei
  • Meteo pe hartă
  • Widget-uri
  • user-avatar
    Intrare

    Meteo pe oră la Brecon

    Astăzi, 3 Iunie, Miercuri

    Timp Temperatura Precipitaţii Vânt Presiune Umiditate
    00:00 +15°C° 0 mm 2 m/s 744 mmHg 72%
    01:00 +15°C° 0 mm 2 m/s 743 mmHg 70%
    02:00 +15°C° 0 mm 2 m/s 743 mmHg 67%
    03:00 +14°C° 0 mm 1 m/s 742 mmHg 65%
    04:00 +14°C° 0.1 mm 1 m/s 742 mmHg 69%
    05:00 +14°C° 0.1 mm 1 m/s 741 mmHg 74%
    06:00 +14°C° 0.1 mm 2 m/s 741 mmHg 78%
    07:00 +14°C° 0.6 mm 2 m/s 741 mmHg 83%
    08:00 +13°C° 0.6 mm 2 m/s 741 mmHg 88%
    09:00 +13°C° 0.6 mm 2 m/s 741 mmHg 94%
    10:00 +13°C° 0.6 mm 2 m/s 740 mmHg 94%
    11:00 +13°C° 0.6 mm 2 m/s 740 mmHg 94%
    12:00 +12°C° 0.6 mm 3 m/s 740 mmHg 94%
    13:00 +12°C° 0.6 mm 4 m/s 740 mmHg 94%
    14:00 +12°C° 0.6 mm 4 m/s 740 mmHg 94%
    15:00 +10°C° 0.6 mm 5 m/s 740 mmHg 94%
    16:00 +10°C° 0.2 mm 5 m/s 740 mmHg 94%
    17:00 +10°C° 0.2 mm 6 m/s 740 mmHg 93%
    18:00 +10°C° 0.2 mm 6 m/s 740 mmHg 93%
    19:00 +9°C° 0.1 mm 6 m/s 741 mmHg 93%
    20:00 +9°C° 0.1 mm 5 m/s 741 mmHg 93%
    21:00 +8°C° 0.1 mm 5 m/s 741 mmHg 93%
    22:00 +8°C° 0 mm 4 m/s 741 mmHg 93%
    23:00 +7°C° 0 mm 4 m/s 741 mmHg 93%

    Mâine, 4 Iunie, Joi

    Timp Temperatura Precipitaţii Vânt Presiune Umiditate
    00:00 +8°C° 0 mm 3 m/s 740 mmHg 94%
    01:00 +7°C° 0 mm 3 m/s 740 mmHg 93%
    02:00 +7°C° 0 mm 3 m/s 740 mmHg 93%
    03:00 +5°C° 0 mm 3 m/s 739 mmHg 93%
    04:00 +7°C° 0 mm 3 m/s 739 mmHg 91%
    05:00 +7°C° 0 mm 3 m/s 739 mmHg 90%
    06:00 +8°C° 0 mm 3 m/s 739 mmHg 88%
    07:00 +8°C° 0 mm 4 m/s 739 mmHg 82%
    08:00 +11°C° 0 mm 4 m/s 739 mmHg 75%
    09:00 +12°C° 0 mm 5 m/s 739 mmHg 68%
    10:00 +12°C° 0.1 mm 5 m/s 739 mmHg 68%
    11:00 +13°C° 0.1 mm 5 m/s 738 mmHg 68%
    12:00 +13°C° 0.1 mm 6 m/s 738 mmHg 67%
    13:00 +13°C° 0.1 mm 6 m/s 738 mmHg 66%
    14:00 +13°C° 0.1 mm 6 m/s 737 mmHg 65%
    15:00 +14°C° 0.1 mm 7 m/s 737 mmHg 64%
    16:00 +12°C° 0 mm 7 m/s 737 mmHg 68%
    17:00 +12°C° 0 mm 7 m/s 736 mmHg 71%
    18:00 +11°C° 0 mm 6 m/s 736 mmHg 74%
    19:00 +10°C° 0 mm 5 m/s 736 mmHg 81%
    20:00 +9°C° 0 mm 5 m/s 736 mmHg 87%
    21:00 +10°C° 0 mm 4 m/s 736 mmHg 94%
    22:00 +8°C° 0.1 mm 4 m/s 735 mmHg 94%
    23:00 +8°C° 0.1 mm 4 m/s 735 mmHg 94%

    Poimâine, 5 Iunie, Vineri

    Timp Temperatura Precipitaţii Vânt Presiune Umiditate
    00:00 +7°C° 0.1 mm 4 m/s 735 mmHg 93%
    01:00 +7°C° 0 mm 4 m/s 734 mmHg 93%
    02:00 +6°C° 0 mm 5 m/s 734 mmHg 93%
    03:00 +6°C° 0 mm 5 m/s 734 mmHg 93%
    04:00 +5°C° 0 mm 6 m/s 734 mmHg 90%
    05:00 +6°C° 0 mm 7 m/s 734 mmHg 86%
    06:00 +6°C° 0 mm 8 m/s 734 mmHg 83%
    07:00 +7°C° 0 mm 8 m/s 734 mmHg 78%
    08:00 +9°C° 0 mm 8 m/s 734 mmHg 72%
    09:00 +10°C° 0 mm 8 m/s 734 mmHg 66%
    10:00 +11°C° 0 mm 9 m/s 734 mmHg 63%
    11:00 +12°C° 0 mm 9 m/s 734 mmHg 60%
    12:00 +12°C° 0 mm 9 m/s 734 mmHg 57%
    13:00 +12°C° 0 mm 9 m/s 734 mmHg 57%
    14:00 +12°C° 0 mm 9 m/s 734 mmHg 57%
    15:00 +12°C° 0 mm 9 m/s 734 mmHg 57%
    16:00 +11°C° 0.2 mm 8 m/s 734 mmHg 63%
    17:00 +10°C° 0.2 mm 8 m/s 733 mmHg 69%
    18:00 +9°C° 0.2 mm 7 m/s 733 mmHg 75%
    19:00 +8°C° 0 mm 6 m/s 734 mmHg 78%
    20:00 +7°C° 0 mm 6 m/s 734 mmHg 80%
    21:00 +6°C° 0 mm 5 m/s 734 mmHg 83%
    22:00 +5°C° 0 mm 5 m/s 734 mmHg 84%
    23:00 +5°C° 0 mm 5 m/s 734 mmHg 85%

    6 Iunie, Sâmbătă

    Timp Temperatura Precipitaţii Vânt Presiune Umiditate
    00:00 +3°C° 0 mm 5 m/s 734 mmHg 86%
    01:00 +3°C° 0 mm 6 m/s 734 mmHg 85%
    02:00 +3°C° 0 mm 7 m/s 734 mmHg 84%
    03:00 +2°C° 0 mm 8 m/s 734 mmHg 83%
    04:00 +4°C° 0 mm 8 m/s 734 mmHg 81%
    05:00 +3°C° 0 mm 9 m/s 734 mmHg 79%
    06:00 +5°C° 0 mm 9 m/s 734 mmHg 77%
    07:00 +5°C° 0.1 mm 9 m/s 734 mmHg 78%
    08:00 +5°C° 0.1 mm 10 m/s 734 mmHg 80%
    09:00 +6°C° 0.1 mm 10 m/s 734 mmHg 82%
    10:00 +6°C° 0.4 mm 10 m/s 734 mmHg 85%
    11:00 +6°C° 0.4 mm 10 m/s 734 mmHg 88%
    12:00 +6°C° 0.4 mm 10 m/s 734 mmHg 91%
    13:00 +6°C° 0.3 mm 9 m/s 734 mmHg 90%
    14:00 +7°C° 0.3 mm 9 m/s 734 mmHg 90%
    15:00 +7°C° 0.3 mm 9 m/s 734 mmHg 89%
    16:00 +7°C° 0.1 mm 9 m/s 734 mmHg 88%
    17:00 +8°C° 0.1 mm 9 m/s 734 mmHg 87%
    18:00 +8°C° 0.1 mm 9 m/s 734 mmHg 86%
    19:00 +8°C° 0.1 mm 9 m/s 735 mmHg 87%
    20:00 +7°C° 0.1 mm 8 m/s 735 mmHg 88%
    21:00 +7°C° 0.1 mm 8 m/s 735 mmHg 89%
    22:00 +7°C° 0.2 mm 8 m/s 735 mmHg 90%
    23:00 +8°C° 0.2 mm 7 m/s 735 mmHg 92%

    7 Iunie, Duminică

    Timp Temperatura Precipitaţii Vânt Presiune Umiditate
    00:00 +8°C° 0.2 mm 7 m/s 735 mmHg 93%
    01:00 +8°C° 0.1 mm 6 m/s 736 mmHg 94%
    02:00 +8°C° 0.1 mm 6 m/s 736 mmHg 94%
    03:00 +7°C° 0.1 mm 6 m/s 736 mmHg 95%
    04:00 +8°C° 0 mm 6 m/s 736 mmHg 94%
    05:00 +8°C° 0 mm 6 m/s 736 mmHg 92%
    06:00 +9°C° 0 mm 6 m/s 736 mmHg 91%
    07:00 +10°C° 0 mm 6 m/s 737 mmHg 86%
    08:00 +11°C° 0 mm 6 m/s 737 mmHg 81%
    09:00 +12°C° 0 mm 7 m/s 737 mmHg 76%
    10:00 +12°C° 0.2 mm 7 m/s 737 mmHg 79%
    11:00 +12°C° 0.2 mm 7 m/s 737 mmHg 82%
    12:00 +11°C° 0.2 mm 7 m/s 738 mmHg 85%
    13:00 +12°C° 0.1 mm 8 m/s 738 mmHg 82%
    14:00 +12°C° 0.1 mm 8 m/s 738 mmHg 78%
    15:00 +12°C° 0.1 mm 8 m/s 738 mmHg 75%
    16:00 +12°C° 0 mm 8 m/s 738 mmHg 76%
    17:00 +12°C° 0 mm 7 m/s 739 mmHg 77%
    18:00 +12°C° 0 mm 7 m/s 739 mmHg 77%
    19:00 +11°C° 0 mm 7 m/s 739 mmHg 80%
    20:00 +11°C° 0 mm 6 m/s 740 mmHg 83%
    21:00 +10°C° 0 mm 6 m/s 740 mmHg 85%
    22:00 +10°C° 0 mm 6 m/s 740 mmHg 86%
    23:00 +10°C° 0 mm 6 m/s 740 mmHg 87%

    8 Iunie, Luni

    Timp Temperatura Precipitaţii Vânt Presiune Umiditate
    00:00 +10°C° 0 mm 6 m/s 740 mmHg 87%
    01:00 +10°C° 0 mm 6 m/s 741 mmHg 87%
    02:00 +10°C° 0 mm 5 m/s 741 mmHg 87%
    03:00 +10°C° 0 mm 5 m/s 741 mmHg 87%
    04:00 +11°C° 0 mm 4 m/s 741 mmHg 87%
    05:00 +11°C° 0 mm 4 m/s 742 mmHg 87%
    06:00 +11°C° 0 mm 4 m/s 742 mmHg 87%
    07:00 +12°C° 0 mm 4 m/s 742 mmHg 84%
    08:00 +13°C° 0 mm 4 m/s 743 mmHg 81%
    09:00 +14°C° 0 mm 4 m/s 743 mmHg 78%
    10:00 +14°C° 0.2 mm 4 m/s 744 mmHg 77%
    11:00 +15°C° 0.2 mm 4 m/s 744 mmHg 77%
    12:00 +15°C° 0.2 mm 4 m/s 744 mmHg 76%
    13:00 +15°C° 0.5 mm 4 m/s 744 mmHg 77%
    14:00 +15°C° 0.5 mm 4 m/s 744 mmHg 79%
    15:00 +15°C° 0.5 mm 4 m/s 744 mmHg 81%
    16:00 +15°C° 0.3 mm 4 m/s 744 mmHg 82%
    17:00 +15°C° 0.3 mm 4 m/s 744 mmHg 82%
    18:00 +15°C° 0.3 mm 4 m/s 745 mmHg 83%
    19:00 +13°C° 0.1 mm 3 m/s 745 mmHg 85%
    20:00 +12°C° 0.1 mm 3 m/s 745 mmHg 88%
    21:00 +11°C° 0.1 mm 3 m/s 746 mmHg 90%
    22:00 +10°C° 0 mm 2 m/s 746 mmHg 91%
    23:00 +10°C° 0 mm 2 m/s 746 mmHg 91%
    Arată mai mult